Flag for U.S.A. Weather past 2 weeks in Bristol, Tennessee, U.S.A.

Now
66 °F

Clear.


Feels Like: 66 °F
Forecast: 67 / 87 °F
Wind: No wind

Location: Abingdon-Southwest Abingdon

Current Time: Aug 5, 2015 at 7:20:01 AM

Latest Report: Aug 5, 2015 at 6:55 AM


Visibility: 10 mi

Pressure: 30.11 "Hg (28.37 "Hg at 510m altitude)

Humidity: 90%

Dew point: 64 °F

Location of BristolLocation

Historic Weather in Bristol — Graph

°F

Bristol temperature yesterday

Maximum temperature yesterday: 89 °F (at 3:35 PM)
Minimum temperature yesterday: 65 °F (at 7:15 AM)
Average temperature yesterday: 75 °F

Past Weeks' High & Low Weather Summary

 TemperatureHumidityPressure
High89 °F (Jul 28, 2:55 PM)100% (Jul 21, 6:10 AM)30.14 "Hg (Jul 21, 6:10 AM)
Low59 °F (Aug 1, 6:55 AM)23% (Aug 2, 4:35 PM)29.87 "Hg (Jul 21, 3:15 PM)
Average75 °F70%30.05 "Hg
* Reported Jul 21 6:10 AM — Aug 5 6:15 AM, Bristol, Weather by CustomWeather, © 2015

Note: Actual official high and low records may vary slightly from our data, if they occured in-between our weather recording intervals... More about our weather records

Advertising

Bristol weather history for previous 24 hours

 ConditionsComfort  
Time TempWeatherWind HumidityBarometerVisibility
6:15 AM
Wed, Aug 5
67 °FClear.No wind91%30.11 "Hg10 mi
5:55 AM67 °FClear.No wind90%30.11 "Hg10 mi
5:35 AM67 °FClear.No wind90%30.10 "Hg10 mi
5:15 AM67 °FClear.No wind90%30.10 "Hg10 mi
4:55 AM67 °FClear.No wind92%30.10 "Hg10 mi
4:15 AM67 °FFog.No wind94%30.09 "Hg5 mi
3:55 AM67 °FClear.No wind94%30.08 "Hg7 mi
3:35 AM67 °FClear.3 mph95%30.09 "Hg7 mi
3:15 AM67 °FFog.No wind94%30.09 "Hg5 mi
2:55 AM67 °FClear.No wind94%30.09 "Hg7 mi
2:35 AM68 °FClear.No wind93%30.10 "Hg7 mi
2:15 AM68 °FClear.No wind93%30.11 "Hg7 mi
1:55 AM68 °FClear.No wind93%30.12 "Hg7 mi
1:30 AM69 °FClear.No wind90%30.13 "Hg10 mi
1:15 AM69 °FClear.No wind88%30.14 "Hg10 mi
12:35 AM70 °FClear.No wind86%30.14 "Hg10 mi
12:15 AM69 °FClear.No wind89%30.13 "Hg10 mi
11:55 PM
Tue, Aug 4
69 °FClear.No wind88%30.13 "Hg10 mi
11:15 PM71 °FClear.No wind85%30.11 "Hg10 mi
10:55 PM71 °FClear.3 mph85%30.12 "Hg10 mi
10:15 PM72 °FPassing clouds.No wind83%30.12 "Hg10 mi
9:55 PM72 °FPassing clouds.3 mph83%30.12 "Hg10 mi
9:15 PM73 °FSunny.No wind81%30.11 "Hg10 mi
8:55 PM74 °FSunny.No wind74%30.10 "Hg10 mi
8:35 PM74 °FSunny.No wind73%30.09 "Hg10 mi
8:15 PM75 °FScattered clouds.5 mph73%30.09 "Hg10 mi
7:55 PM76 °FScattered clouds.5 mph72%30.09 "Hg10 mi
7:15 PM76 °FScattered clouds.3 mph82%30.08 "Hg10 mi
6:55 PM77 °FThundershowers. More clouds than sun.3 mph73%30.09 "Hg10 mi
6:15 PM82 °FLight rain. Partly sunny.7 mph58%30.06 "Hg10 mi
5:55 PM83 °FSunny.3 mph52%30.06 "Hg10 mi
5:15 PM84 °FSunny.5 mph48%30.07 "Hg10 mi
4:55 PM85 °FSunny.5 mph45%30.06 "Hg10 mi
4:35 PM86 °FThundershowers. Sunny.7 mph42%30.06 "Hg10 mi
4:15 PM87 °FScattered clouds.6 mph43%30.06 "Hg10 mi
3:55 PM87 °FScattered clouds.9 mph42%30.06 "Hg10 mi
3:35 PM89 °FScattered clouds.8 mph42%30.06 "Hg10 mi
3:15 PM88 °FScattered clouds.6 mph40%30.06 "Hg10 mi
2:55 PM87 °FScattered clouds.8 mph45%30.07 "Hg10 mi
2:35 PM87 °FScattered clouds.10 mph47%30.08 "Hg10 mi
2:15 PM87 °FSunny.No wind45%30.09 "Hg10 mi
1:55 PM87 °FScattered clouds.10 mph48%30.09 "Hg10 mi
1:35 PM86 °FScattered clouds.7 mph49%30.10 "Hg10 mi
1:15 PM85 °FScattered clouds.7 mph48%30.10 "Hg10 mi
12:55 PM84 °FScattered clouds.5 mph52%30.10 "Hg10 mi
12:35 PM84 °FScattered clouds.5 mph54%30.10 "Hg10 mi
12:15 PM83 °FSunny.8 mph54%30.10 "Hg10 mi
11:55 AM83 °FSunny.8 mph54%30.11 "Hg10 mi
11:35 AM82 °FSunny.5 mph54%30.10 "Hg10 mi
11:15 AM81 °FSunny.7 mph54%30.10 "Hg10 mi
10:15 AM78 °FSunny.5 mph55%30.09 "Hg10 mi
9:55 AM78 °FSunny.5 mph55%30.09 "Hg10 mi
9:35 AM77 °FSunny.5 mph56%30.09 "Hg10 mi
9:15 AM75 °FSunny.3 mph58%30.09 "Hg10 mi
8:55 AM74 °FSunny.No wind65%30.09 "Hg10 mi
8:15 AM70 °FSunny.No wind75%30.08 "Hg10 mi
7:55 AM68 °FSunny.No wind81%30.08 "Hg10 mi
7:35 AM66 °FClear.No wind83%30.08 "Hg10 mi
7:15 AM65 °FClear.No wind86%30.07 "Hg10 mi
Weather by CustomWeather, © 2015

See weather overviewHow to use our weather pages